Find Starlink 35968

NORAD ID: 66636 Int'l Des: 2025-271 Owner: SPXS Country: US Constellation: starlink operational
LEOCIRCULAR

Live-Position

3D-Globus wird geladen...

Über Starlink 35968

Beschreibung wird geladen...

Nächste Überflüge

Passes for default location (London). Set your location on the main map for personalized predictions.

Höhenverlauf

Loading altitude history...

Zweizeiliger Elementsatz

1 66636U 25271V 26104.87162954 .00011410 00000-0 39649-3 0 9990
2 66636 53.1607 332.0586 0001060 130.0426 230.0668 15.30223497 23108
Epoch: 14. Apr. 2026 • Age: 8 hours

Aktueller Status

Höhe 482.3 km
Geschwindigkeit 7.62 km/s
Subsatellitenpunkt -22.84°S, 39.46°E
Startdatum 23. Nov. 2025
Alter 0.3 years
Typ internet

Technische Details

Klassifizierung Payload
Masse 575.00 kg
Trockenmasse 530.00 kg
Gesamtmasse 575.00 kg
Länge 0.30 m
Durchmesser 4.10 m
Spannweite 29.00 m
Form Box + pan
Hersteller SPXS
Bus-Typ Starlink V2MO
Phasenstatus In Orbit
Besitzer/Staat SPXS/US

Most Searched